YAOGAN 20C

导读 | 星芒AI

YAOGAN 20C 是一颗由中国研制并发射的遥感卫星,主要用于科学实验、国土资源调查、环境监测以及灾害预警等领域。该卫星属于中国高分辨率对地观测系统的一部分,具备高精度成像能力,能够获取地表高分辨率图像,为农业、林业、城市规划和应急响应提供数据支持。其发射进一步提升了中国在遥感技术和空间应用方面的能力。

基本信息
目录编号:
40111
目录名称:
YAOGAN 20C
国际标识:
2014-047C
轨道中心:
EARTH
卫星名称:
YAOGAN 20C
卫星全名:
--
卫星状态:
在轨 (已飞行4099 天)
发射日期:
2014-08-09 UTC
国别 :
中国 (CN)
星等 :
--
轨道信息
数据来源 国际轨道数据 AOE轨道数据
星历时间 2025-10-28T22:34:02+0800
16小时前
查看轨道信息
2025-10-23T22:00:00+0800
5天前
查看轨道信息
半长轴 7467.306km 7467.314km
偏心率 0.0369804 0.0369366
轨道倾角 63.379° 63.379°
近地点辐角 13.827° 13.795°
升交点赤经 256.693° 269.641°
平近点角 347.256° 135.305°
近地点 813.027km 813.361km
远地点 1365.315km 1364.997km
周期 107.030分钟 107.030分钟
每日圈数 13.454169 13.454148
详细信息
使用方式:
暂无
2D轨道图
3D轨道图
轨道高度分析图
轨道倾角分析图
轨道综合分析图
查看轨道综合分析图